Location: Home
(42.5358°N, 72.7383°W)
Time: 10:14:10
(UTC-04:00)

A-11 Canister half - Pass Details

Date: 03 July 2022
Orbit: 1514 x 1685 km, 47.2° (Epoch: 15 August)

Event Time Altitude Azimuth Distance (km) Brightness Sun altitude
Rises 22:15:06 0° 234° (SW) 4,920 11.7 -14.9°
Reaches altitude 10° 22:18:15 10° 233° (SW) 3,940 11.1 -15.2°
Maximum altitude 22:28:24 77° 149° (SSE) 1,721 9.1 -16.3°
Drops below altitude 10° 22:38:27 10° 66° (ENE) 3,909 11.0 -17.4°
Sets 22:41:34 0° 65° (ENE) 4,880 11.6 -17.7°
